Location: Mentone
(34.5413°N, 85.5351°W)
Time: 11:51:10
(UTC-05:00)

Vanguard 1 - Visible Passes

Search period start: 23 May 2018 00:00
Search period end: 02 June 2018 00:00
Orbit: 650 x 3833 km, 34.3° (Epoch: 23 May)

Date Brightness Start Highest point End Pass type
(mag) Time Alt. Az. Time Alt. Az. Time Alt. Az.
23 May 11.7 20:48:14 10° W 20:56:22 29° SW 21:01:12 12° SSE visible
24 May 11.9 21:10:34 10° W 21:16:42 19° SW 21:21:06 10° S visible
25 May 12.3 21:34:12 10° WSW 21:36:55 12° SW 21:39:17 10° SSW visible
28 May 12.3 20:10:33 10° W 20:19:28 24° SW 20:25:23 10° S visible
29 May 12.5 20:33:43 10° W 20:39:38 16° SW 20:44:09 10° SSW visible
